Terminal Aerodrome Forecast
Issued by NWS Bismarck, ND

Home | Current Version | Previous Version | Graphics & Text | Print | Product List | Glossary On
Versions: 1 2 3 4 5 6 7 8 9 10 11 12 13 14 15 16 17 18 19 20 21 22 23 24 25 26 27 28 29 30
000
FTUS43 KBIS 282100 AAA
TAFBIS
TAF AMD
KBIS 282105Z 2821/2918 18020G27KT P6SM SCT150
     FM290300 27016G23KT P6SM SCT150
     FM290800 32030G40KT P6SM BKN025
     FM291600 32023G33KT P6SM SCT025=

USA.gov is the U.S. government's official web portal to all federal, state and local government web resources and services.